Погода в Лапыгино

Россия / Белгородская область     51°21′41″N   37°57′32″E
темп.,
°C
ветер,
м/с
пор.,
м/с
влажн.,
%
обл.,
%
осадки,
мм/ч
давл.,
гПа
погр.,
м
9 мая, вс
вс900:00+6з71194100 0.7 1008543
03:00+5зсз61093100 1.4 1009846
06:00+5зсз71192100 0.1 1010900
09:00+5сз71188100 0.2 1013979
12:00+7сз81273100 0.0 10141187
15:00+9сз81161100 0.1 10161586
18:00+9ссз7117050 0.1 10181380
21:00+5ссз410795 0.1 1021260
10 мая, пн
пн1000:00+4сз513815 0.0 1021349
03:00+4ссз512825 0.0 1023333
06:00+4ссз6148098 0.0 1023411
09:00+10с814605 0.0 10231460
12:00+12с10144944 0.0 10221786
15:00+13с101455100 0.0 10211817
18:00+10с101661100 0.0 10211247
21:00+9ссв101979100 0.4 1020774
11 мая, вт
вт1100:00+9ссв112086100 0.9 1018679
03:00+9ссв91888100 0.9 1017505
06:00+9ссв91891100 0.1 1018574
09:00+10св71394100 1.6 1019729
12:00+13в8126644 0.2 10201511
15:00+14в9125699 0.3 10211860
18:00+12в812715 0.1 10231411
21:00+9всв5137799 0.1 1023428
12 мая, ср
ср1200:00+8в51381100 0.0 1022407
03:00+8в51284100 0.0 1021373
06:00+8всв41187100 0.0 1021364
09:00+13вюв81367100 0.0 10201275
12:00+14юв81268100 1.3 10201709
15:00+12вюв4980100 2.1 1020448
18:00+11ююв2487100 0.5 1019107
21:00+11вюв3789100 0.7 1019179
13 мая, чт
чт1300:00+10в378975 0.0 1019144
03:00+9вюв49905 0.0 1019144
06:00+9вюв37885 0.0 1019146
09:00+16юв46674 0.0 1018538
12:00+19юв4654100 0.0 10181329
15:00+21юв5550100 0.0 10171528
18:00+19юв366156 0.0 1017292
21:00+15вюв3574100 0.0 101663